,,,PA_Meas_PMT16A,,PR_Meas_QMR101_102,,RH_Meas_QMH101,,SR_Meas_QMS101,,TA_Meas_QMH101,,GenWind,,GenWind,
date,time,status,PA,status,PR,status,RH,status,SR,status,TA,status,DirAvg,status,SpdAvg,
2010-11-05, 00:00:04,VALID,1004.08,VALID,0,INVALID,151.403,VALID,0,VALID,23.7991,VALID,40,VALID,0,
2010-11-05, 00:01:04,VALID,1004,VALID,0,INVALID,151.357,VALID,0,VALID,23.7991,VALID,40,VALID,0,
2010-11-05, 00:02:04,VALID,1003.98,VALID,0,INVALID,151.281,VALID,0,VALID,23.8185,VALID,40,VALID,0,
2010-11-05, 00:03:04,VALID,1003.98,VALID,0,INVALID,151.182,VALID,0,VALID,23.7973,VALID,40,VALID,0,
2010-11-05, 00:04:04,VALID,1003.95,VALID,0,INVALID,151.136,VALID,0,VALID,23.8398,VALID,40,VALID,0,
2010-11-05, 00:05:04,VALID,1003.93,VALID,0,INVALID,151.09,VALID,0,VALID,23.8593,VALID,40,VALID,0,
2010-11-05, 00:06:04,VALID,1003.96,VALID,0,INVALID,151.082,VALID,0,VALID,23.8185,VALID,40,VALID,0,
2010-11-05, 00:07:04,VALID,1003.97,VALID,0,INVALID,151.021,VALID,0,VALID,23.8398,VALID,40,VALID,0,
2010-11-05, 00:08:04,VALID,1003.98,VALID,0,INVALID,150.96,VALID,0,VALID,23.8185,VALID,36,VALID,0,
2010-11-05, 00:09:04,VALID,1004.02,VALID,0,INVALID,150.892,VALID,0,VALID,23.8398,VALID,22,VALID,0.357422,
2010-11-05, 00:10:04,VALID,1004.04,VALID,0,INVALID,150.876,VALID,0,VALID,23.8185,VALID,22,VALID,0.712891,
2010-11-05, 00:11:04,VALID,1004.08,VALID,0,INVALID,150.861,VALID,0,VALID,23.8185,VALID,22,VALID,0.504687,
2010-11-05, 00:12:04,VALID,1004.07,VALID,0,INVALID,150.815,VALID,0,VALID,23.8185,VALID,22,VALID,0.455859,
2010-11-05, 00:13:04,VALID,1004.1,VALID,0,INVALID,150.716,VALID,0,VALID,23.7991,VALID,21,VALID,0.5125,
2010-11-05, 00:14:04,VALID,1004.07,VALID,0,INVALID,150.648,VALID,0,VALID,23.8185,VALID,21,VALID,0.310937,
2010-11-05, 00:15:04,VALID,1004.05,VALID,0,INVALID,150.571,VALID,0,VALID,23.8185,VALID,21,VALID,0.278125,
2010-11-05, 00:16:04,VALID,1004.02,VALID,0,INVALID,150.434,VALID,0,VALID,23.838,VALID,21,VALID,0.148047,
2010-11-05, 00:17:04,VALID,1003.97,VALID,0,INVALID,150.342,VALID,0,VALID,23.8593,VALID,21,VALID,0,
2010-11-05, 00:18:04,VALID,1003.97,VALID,0,INVALID,150.289,VALID,0,VALID,23.8575,VALID,21,VALID,0,
2010-11-05, 00:19:04,VALID,1003.91,VALID,0,INVALID,150.22,VALID,0.100563,VALID,23.8769,VALID,21,VALID,0,
2010-11-05, 00:20:04,VALID,1003.87,VALID,0,INVALID,150.136,VALID,0,VALID,23.8982,VALID,21,VALID,0,
2010-11-05, 00:21:04,VALID,1003.86,VALID,0,INVALID,150.083,VALID,0,VALID,23.8769,VALID,21,VALID,0,
2010-11-05, 00:22:04,VALID,1003.85,VALID,0,INVALID,150.06,VALID,0,VALID,23.9177,VALID,22,VALID,0,
2010-11-05, 00:23:04,VALID,1003.87,VALID,0,INVALID,150.045,VALID,0.100563,VALID,23.8769,VALID,22,VALID,0,
2010-11-05, 00:24:04,VALID,1003.85,VALID,0,INVALID,149.976,VALID,0,VALID,23.9177,VALID,22,VALID,0,
2010-11-05, 00:25:04,VALID,1003.86,VALID,0,INVALID,149.953,VALID,0,VALID,23.8964,VALID,22,VALID,0,
2010-11-05, 00:26:04,VALID,1003.83,VALID,0,INVALID,149.93,VALID,0.100563,VALID,23.8982,VALID,22,VALID,0,
2010-11-05, 00:27:04,VALID,1003.82,VALID,0,INVALID,149.877,VALID,0,VALID,23.8982,VALID,22,VALID,0,
2010-11-05, 00:28:04,VALID,1003.82,VALID,0,INVALID,149.831,VALID,0,VALID,23.9177,VALID,21,VALID,0,
2010-11-05, 00:29:04,VALID,1003.78,VALID,0,INVALID,149.778,VALID,0,VALID,23.8982,VALID,21,VALID,0,
2010-11-05, 00:30:04,VALID,1003.78,VALID,0,INVALID,149.702,VALID,0,VALID,23.8964,VALID,21,VALID,0,
2010-11-05, 00:31:04,VALID,1003.78,VALID,0,INVALID,149.679,VALID,0,VALID,23.8982,VALID,22,VALID,0,
2010-11-05, 00:32:04,VALID,1003.76,VALID,0,INVALID,149.587,VALID,0,VALID,23.9177,VALID,21,VALID,0,
2010-11-05, 00:33:04,VALID,1003.72,VALID,0,INVALID,149.518,VALID,0,VALID,23.9177,VALID,21,VALID,0,
2010-11-05, 00:34:04,VALID,1003.7,VALID,0,INVALID,149.526,VALID,0,VALID,23.8982,VALID,9,VALID,0.400391,
2010-11-05, 00:35:04,VALID,1003.68,VALID,0,INVALID,149.457,VALID,0,VALID,23.8982,VALID,9,VALID,0.271094,
2010-11-05, 00:36:04,VALID,1003.68,VALID,0,INVALID,149.45,VALID,0,VALID,23.8982,VALID,9,VALID,0.272656,
2010-11-05, 00:37:04,VALID,1003.67,VALID,0,INVALID,149.419,VALID,0,VALID,23.8769,VALID,9,VALID,0.0566406,
2010-11-05, 00:38:04,VALID,1003.67,VALID,0,INVALID,149.351,VALID,0,VALID,23.8769,VALID,9,VALID,0.0128906,
2010-11-05, 00:39:04,VALID,1003.63,VALID,0,INVALID,149.229,VALID,0,VALID,23.9177,VALID,9,VALID,0,
2010-11-05, 00:40:04,VALID,1003.64,VALID,0,INVALID,149.129,VALID,0,VALID,23.9159,VALID,9,VALID,0,
2010-11-05, 00:41:04,VALID,1003.65,VALID,0,INVALID,149.03,VALID,0,VALID,23.9159,VALID,9,VALID,0,
2010-11-05, 00:42:04,VALID,1003.67,VALID,0,INVALID,148.984,VALID,0,VALID,23.9353,VALID,9,VALID,0,
2010-11-05, 00:43:04,VALID,1003.64,VALID,0,INVALID,148.931,VALID,0,VALID,23.9548,VALID,9,VALID,0,
2010-11-05, 00:44:04,VALID,1003.67,VALID,0,INVALID,148.885,VALID,0,VALID,23.9353,VALID,9,VALID,0,
2010-11-05, 00:45:04,VALID,1003.65,VALID,0,INVALID,148.885,VALID,0,VALID,23.9353,VALID,9,VALID,0,
2010-11-05, 00:46:04,VALID,1003.67,VALID,0,INVALID,148.839,VALID,0,VALID,23.9566,VALID,9,VALID,0,
2010-11-05, 00:47:04,VALID,1003.64,VALID,0,INVALID,148.756,VALID,0,VALID,23.9548,VALID,9,VALID,0,
2010-11-05, 00:48:04,VALID,1003.68,VALID,0,INVALID,148.725,VALID,0,VALID,23.9353,VALID,9,VALID,0,
2010-11-05, 00:49:04,VALID,1003.65,VALID,0,INVALID,148.595,VALID,0,VALID,23.9761,VALID,9,VALID,0,
2010-11-05, 00:50:04,VALID,1003.64,VALID,0,INVALID,148.542,VALID,0.100563,VALID,23.953,VALID,9,VALID,0.630859,
2010-11-05, 00:51:04,VALID,1003.6,VALID,0,INVALID,148.481,VALID,0,VALID,23.9742,VALID,3,VALID,0.816406,
2010-11-05, 00:52:04,VALID,1003.59,VALID,0,INVALID,148.435,VALID,0,VALID,23.9742,VALID,359,VALID,0.758984,
2010-11-05, 00:53:04,VALID,1003.56,VALID,0,INVALID,148.374,VALID,0,VALID,23.9742,VALID,359,VALID,0.784375,
2010-11-05, 00:54:04,VALID,1003.55,VALID,0,INVALID,148.382,VALID,0,VALID,23.9548,VALID,357,VALID,0.761719,
2010-11-05, 00:55:04,VALID,1003.53,VALID,0,INVALID,148.351,VALID,0,VALID,23.9761,VALID,357,VALID,0.752344,
2010-11-05, 00:56:04,VALID,1003.55,VALID,0,INVALID,148.313,VALID,0,VALID,23.9761,VALID,335,VALID,0.665234,
2010-11-05, 00:57:04,VALID,1003.5,VALID,0,INVALID,148.237,VALID,0,VALID,24.0168,VALID,358,VALID,0.920313,
2010-11-05, 00:58:04,VALID,1003.49,VALID,0,INVALID,148.145,VALID,0,VALID,23.9955,VALID,341,VALID,0.470313,
2010-11-05, 00:59:04,VALID,1003.48,VALID,0,INVALID,148.069,VALID,0,VALID,24.015,VALID,342,VALID,0.589063,
2010-11-05, 01:00:04,VALID,1003.5,VALID,0,INVALID,148,VALID,0,VALID,24.0132,VALID,21,VALID,0.991406,
2010-11-05, 01:01:04,VALID,1003.47,VALID,0,INVALID,148,VALID,0,VALID,24.0132,VALID,29,VALID,0.401563,
2010-11-05, 01:02:04,VALID,1003.44,VALID,0,INVALID,147.932,VALID,0,VALID,24.0132,VALID,5,VALID,0.588281,
2010-11-05, 01:03:04,VALID,1003.39,VALID,0,INVALID,147.863,VALID,0,VALID,24.0326,VALID,16,VALID,0.736328,
2010-11-05, 01:04:04,VALID,1003.39,VALID,0,INVALID,147.733,VALID,0,VALID,24.0734,VALID,7,VALID,0.855859,
2010-11-05, 01:05:04,VALID,1003.37,VALID,0,INVALID,147.649,VALID,0,VALID,24.1123,VALID,12,VALID,0.588281,
2010-11-05, 01:06:04,VALID,1003.37,VALID,0,INVALID,147.558,VALID,0,VALID,24.1318,VALID,38,VALID,0.833984,
2010-11-05, 01:07:04,VALID,1003.34,VALID,0,INVALID,147.512,VALID,0,VALID,24.13,VALID,7,VALID,0.626172,
2010-11-05, 01:08:04,VALID,1003.3,VALID,0,INVALID,147.497,VALID,0,VALID,24.1513,VALID,5,VALID,0.519531,
2010-11-05, 01:09:04,VALID,1003.28,VALID,0,INVALID,147.466,VALID,0,VALID,24.1689,VALID,12,VALID,0.634766,
2010-11-05, 01:10:04,VALID,1003.27,VALID,0,INVALID,147.428,VALID,0,VALID,24.1902,VALID,12,VALID,0.257422,
2010-11-05, 01:11:04,VALID,1003.26,VALID,0,INVALID,147.436,VALID,0,VALID,24.1689,VALID,20,VALID,0.543359,
2010-11-05, 01:12:04,VALID,1003.28,VALID,0,INVALID,147.436,VALID,0,VALID,24.2097,VALID,20,VALID,0.028125,
2010-11-05, 01:13:04,VALID,1003.27,VALID,0,INVALID,147.459,VALID,0,VALID,24.1902,VALID,20,VALID,0,
2010-11-05, 01:14:04,VALID,1003.25,VALID,0,INVALID,147.482,VALID,0,VALID,24.1902,VALID,20,VALID,0,
2010-11-05, 01:15:04,VALID,1003.22,VALID,0,INVALID,147.459,VALID,0,VALID,24.1689,VALID,20,VALID,0,
2010-11-05, 01:16:04,VALID,1003.22,VALID,0,INVALID,147.436,VALID,0,VALID,24.1884,VALID,20,VALID,0,
2010-11-05, 01:17:04,VALID,1003.22,VALID,0,INVALID,147.367,VALID,0,VALID,24.2078,VALID,20,VALID,0,
2010-11-05, 01:18:04,VALID,1003.18,VALID,0,INVALID,147.382,VALID,0,VALID,24.2291,VALID,20,VALID,0,
2010-11-05, 01:19:04,VALID,1003.17,VALID,0,INVALID,147.337,VALID,0,VALID,24.2291,VALID,20,VALID,0.277734,
2010-11-05, 01:20:04,VALID,1003.12,VALID,0,INVALID,147.352,VALID,0,VALID,24.2097,VALID,20,VALID,0.495703,
2010-11-05, 01:21:04,VALID,1003.12,VALID,0,INVALID,147.298,VALID,0,VALID,24.1884,VALID,20,VALID,0.412891,
2010-11-05, 01:22:04,VALID,1003.08,VALID,0,INVALID,147.314,VALID,0,VALID,24.2097,VALID,20,VALID,0.433203,
2010-11-05, 01:23:04,VALID,1003.09,VALID,0,INVALID,147.291,VALID,0,VALID,24.1884,VALID,20,VALID,0.56875,
2010-11-05, 01:24:04,VALID,1003.06,VALID,0,INVALID,147.298,VALID,0,VALID,24.2097,VALID,20,VALID,0.532422,
2010-11-05, 01:25:04,VALID,1003.06,VALID,0,INVALID,147.237,VALID,0,VALID,24.1884,VALID,20,VALID,0.3,
2010-11-05, 01:26:04,VALID,1003.09,VALID,0,INVALID,147.207,VALID,0,VALID,24.2097,VALID,20,VALID,0.322266,
2010-11-05, 01:27:04,VALID,1003.12,VALID,0,INVALID,147.153,VALID,0,VALID,24.2097,VALID,20,VALID,0,
2010-11-05, 01:28:04,VALID,1003.13,VALID,0,INVALID,147.115,VALID,0,VALID,24.1884,VALID,20,VALID,0,
2010-11-05, 01:29:04,VALID,1003.14,VALID,0,INVALID,147.077,VALID,0,VALID,24.2097,VALID,20,VALID,0,
2010-11-05, 01:30:04,VALID,1003.13,VALID,0,INVALID,147.054,VALID,0,VALID,24.2097,VALID,20,VALID,0,
2010-11-05, 01:31:04,VALID,1003.12,VALID,0,INVALID,147.016,VALID,0,VALID,24.2078,VALID,20,VALID,0,
2010-11-05, 01:32:04,VALID,1003.13,VALID,0,INVALID,146.978,VALID,0,VALID,24.2291,VALID,20,VALID,0,
2010-11-05, 01:33:04,VALID,1003.12,VALID,0,INVALID,146.955,VALID,0,VALID,24.2291,VALID,20,VALID,0,
2010-11-05, 01:34:04,VALID,1003.1,VALID,0,INVALID,146.94,VALID,0,VALID,24.2291,VALID,20,VALID,0,
2010-11-05, 01:35:04,VALID,1003.09,VALID,0,INVALID,146.909,VALID,0,VALID,24.2291,VALID,20,VALID,0,
2010-11-05, 01:36:04,VALID,1003.05,VALID,0,INVALID,146.902,VALID,0,VALID,24.2291,VALID,20,VALID,0,
2010-11-05, 01:37:04,VALID,1003.07,VALID,0,INVALID,146.932,VALID,0,VALID,24.2097,VALID,20,VALID,0,
2010-11-05, 01:38:04,VALID,1003.06,VALID,0,INVALID,146.963,VALID,0,VALID,24.2097,VALID,20,VALID,0,
2010-11-05, 01:39:04,VALID,1003.03,VALID,0,INVALID,146.97,VALID,0,VALID,24.1902,VALID,20,VALID,0,
2010-11-05, 01:40:04,VALID,1002.99,VALID,0,INVALID,146.932,VALID,0,VALID,24.1707,VALID,20,VALID,0,
2010-11-05, 01:41:04,VALID,1002.98,VALID,0,INVALID,146.932,VALID,0,VALID,24.1689,VALID,26,VALID,0,
2010-11-05, 01:42:04,VALID,1003,VALID,0,INVALID,146.902,VALID,0,VALID,24.2115,VALID,48,VALID,0.0972656,
2010-11-05, 01:43:04,VALID,1003,VALID,0,INVALID,146.772,VALID,0,VALID,24.2273,VALID,66,VALID,0,
2010-11-05, 01:44:04,VALID,1002.98,VALID,0,INVALID,146.711,VALID,0,VALID,24.2486,VALID,66,VALID,0,
2010-11-05, 01:45:04,VALID,1002.98,VALID,0,INVALID,146.658,VALID,0,VALID,24.2875,VALID,120,VALID,0.697266,
2010-11-05, 01:46:04,VALID,1002.98,VALID,0,INVALID,146.597,VALID,0,VALID,24.3265,VALID,109,VALID,0.181641,
2010-11-05, 01:47:04,VALID,1002.98,VALID,0,INVALID,146.581,VALID,0,VALID,24.3052,VALID,109,VALID,0.632813,
2010-11-05, 01:48:04,VALID,1002.96,VALID,0,INVALID,146.589,VALID,0,VALID,24.3459,VALID,107,VALID,0.663281,
2010-11-05, 01:49:04,VALID,1002.96,VALID,0,INVALID,146.604,VALID,0,VALID,24.3654,VALID,107,VALID,0.368359,
2010-11-05, 01:50:04,VALID,1002.96,VALID,0,INVALID,146.612,VALID,0,VALID,24.3654,VALID,81,VALID,0.526172,
2010-11-05, 01:51:04,VALID,1002.93,VALID,0,INVALID,146.619,VALID,0,VALID,24.3849,VALID,102,VALID,1.19844,
2010-11-05, 01:52:04,VALID,1002.91,VALID,0,INVALID,146.65,VALID,0,VALID,24.4043,VALID,80,VALID,0.505078,
2010-11-05, 01:53:04,VALID,1002.91,VALID,0,INVALID,146.696,VALID,0,VALID,24.4043,VALID,107,VALID,0.339844,
2010-11-05, 01:54:04,VALID,1002.89,VALID,0,INVALID,146.703,VALID,0,VALID,24.3849,VALID,107,VALID,0.00195313,
2010-11-05, 01:55:04,VALID,1002.86,VALID,0,INVALID,146.749,VALID,0,VALID,24.4451,VALID,107,VALID,0,
2010-11-05, 01:56:04,VALID,1002.86,VALID,0,INVALID,146.749,VALID,0,VALID,24.4062,VALID,105,VALID,0.413672,
2010-11-05, 01:57:04,VALID,1002.86,VALID,0,INVALID,146.757,VALID,0,VALID,24.4043,VALID,104,VALID,0.309766,
2010-11-05, 01:58:04,VALID,1002.88,VALID,0,INVALID,146.734,VALID,0,VALID,24.4238,VALID,89,VALID,0.214453,
2010-11-05, 01:59:04,VALID,1002.86,VALID,0,INVALID,146.696,VALID,0,VALID,24.4238,VALID,89,VALID,0.216797,
2010-11-05, 02:00:04,VALID,1002.84,VALID,0,INVALID,146.635,VALID,0,VALID,24.4433,VALID,76,VALID,0.162891,
2010-11-05, 02:01:04,VALID,1002.84,VALID,0,INVALID,146.597,VALID,0,VALID,24.4628,VALID,76,VALID,0,
2010-11-05, 02:02:04,VALID,1002.87,VALID,0,INVALID,146.589,VALID,0,VALID,24.4628,VALID,76,VALID,0,
2010-11-05, 02:03:04,VALID,1002.86,VALID,0,INVALID,146.612,VALID,0,VALID,24.4822,VALID,76,VALID,0,
2010-11-05, 02:04:04,VALID,1002.86,VALID,0,INVALID,146.604,VALID,0,VALID,24.4822,VALID,76,VALID,0.139453,
2010-11-05, 02:05:04,VALID,1002.86,VALID,0,INVALID,146.597,VALID,0,VALID,24.4822,VALID,76,VALID,0.147266,
2010-11-05, 02:06:04,VALID,1002.87,VALID,0,INVALID,146.604,VALID,0,VALID,24.4822,VALID,76,VALID,0.046875,
2010-11-05, 02:07:04,VALID,1002.9,VALID,0,INVALID,146.619,VALID,0,VALID,24.4822,VALID,28,VALID,0.0492188,
2010-11-05, 02:08:04,VALID,1002.9,VALID,0,INVALID,146.627,VALID,0,VALID,24.4822,VALID,28,VALID,0.0277344,
2010-11-05, 02:09:04,VALID,1002.91,VALID,0,INVALID,146.627,VALID,0,VALID,24.4822,VALID,28,VALID,0,
2010-11-05, 02:10:04,VALID,1002.94,VALID,0,INVALID,146.627,VALID,0,VALID,24.4822,VALID,28,VALID,0,
2010-11-05, 02:11:04,VALID,1002.89,VALID,0,INVALID,146.642,VALID,0,VALID,24.4841,VALID,28,VALID,0,
2010-11-05, 02:12:04,VALID,1002.91,VALID,0,INVALID,146.635,VALID,0,VALID,24.4628,VALID,28,VALID,0,
2010-11-05, 02:13:04,VALID,1002.91,VALID,0,INVALID,146.619,VALID,0,VALID,24.4433,VALID,28,VALID,0,
2010-11-05, 02:14:04,VALID,1002.94,VALID,0,INVALID,146.642,VALID,0,VALID,24.4433,VALID,28,VALID,0,
2010-11-05, 02:15:04,VALID,1002.9,VALID,0,INVALID,146.734,VALID,0,VALID,24.4043,VALID,28,VALID,0,
2010-11-05, 02:16:04,VALID,1002.9,VALID,0,INVALID,146.719,VALID,0,VALID,24.3849,VALID,355,VALID,0,
2010-11-05, 02:17:04,VALID,1002.87,VALID,0,INVALID,146.688,VALID,0,VALID,24.3849,VALID,351,VALID,0,
2010-11-05, 02:18:04,VALID,1002.88,VALID,0,INVALID,146.65,VALID,0,VALID,24.3849,VALID,351,VALID,0,
2010-11-05, 02:19:04,VALID,1002.89,VALID,0,INVALID,146.665,VALID,0,VALID,24.4062,VALID,351,VALID,0,
2010-11-05, 02:20:04,VALID,1002.9,VALID,0,INVALID,146.635,VALID,0,VALID,24.3849,VALID,351,VALID,0,
2010-11-05, 02:21:04,VALID,1002.89,VALID,0,INVALID,146.635,VALID,0,VALID,24.3849,VALID,351,VALID,0,
2010-11-05, 02:22:04,VALID,1002.9,VALID,0,INVALID,146.673,VALID,0,VALID,24.3654,VALID,351,VALID,0,
2010-11-05, 02:23:04,VALID,1002.89,VALID,0,INVALID,146.658,VALID,0,VALID,24.3246,VALID,351,VALID,0,
2010-11-05, 02:24:04,VALID,1002.93,VALID,0,INVALID,146.642,VALID,0,VALID,24.3459,VALID,351,VALID,0,
2010-11-05, 02:25:04,VALID,1002.88,VALID,0,INVALID,146.642,VALID,0,VALID,24.3459,VALID,351,VALID,0,
2010-11-05, 02:26:04,VALID,1002.88,VALID,0,INVALID,146.619,VALID,0,VALID,24.3459,VALID,351,VALID,0,
2010-11-05, 02:27:04,VALID,1002.86,VALID,0,INVALID,146.551,VALID,0,VALID,24.3459,VALID,351,VALID,0,
2010-11-05, 02:28:04,VALID,1002.86,VALID,0,INVALID,146.505,VALID,0,VALID,24.3673,VALID,351,VALID,0,
2010-11-05, 02:29:04,VALID,1002.86,VALID,0,INVALID,146.467,VALID,0,VALID,24.3441,VALID,351,VALID,0,
2010-11-05, 02:30:04,VALID,1002.87,VALID,0,INVALID,146.436,VALID,0,VALID,24.3654,VALID,351,VALID,0,
2010-11-05, 02:31:04,VALID,1002.87,VALID,0,INVALID,146.33,VALID,0,VALID,24.4062,VALID,351,VALID,0,
2010-11-05, 02:32:04,VALID,1002.82,VALID,0,INVALID,146.116,VALID,0,VALID,24.4646,VALID,353,VALID,0,
2010-11-05, 02:33:04,VALID,1002.79,VALID,0,INVALID,145.971,VALID,0,VALID,24.523,VALID,87,VALID,0.362109,
2010-11-05, 02:34:04,VALID,1002.82,VALID,0,INVALID,145.765,VALID,0,VALID,24.599,VALID,28,VALID,0.242188,
2010-11-05, 02:35:04,VALID,1002.81,VALID,0,INVALID,145.734,VALID,0,VALID,24.6185,VALID,27,VALID,0.0417969,
2010-11-05, 02:36:04,VALID,1002.81,VALID,0,INVALID,145.696,VALID,0,VALID,24.638,VALID,38,VALID,0,
2010-11-05, 02:37:04,VALID,1002.79,VALID,0,INVALID,145.75,VALID,0,VALID,24.6983,VALID,98,VALID,0.626562,
2010-11-05, 02:38:04,VALID,1002.78,VALID,0,INVALID,145.803,VALID,0,VALID,24.6769,VALID,17,VALID,0.795313,
2010-11-05, 02:39:04,VALID,1002.84,VALID,0,INVALID,145.826,VALID,0,VALID,24.7177,VALID,38,VALID,0.382422,
2010-11-05, 02:40:04,VALID,1002.84,VALID,0,INVALID,145.902,VALID,0,VALID,24.6964,VALID,74,VALID,0.638281,
2010-11-05, 02:41:04,VALID,1002.83,VALID,0,INVALID,145.933,VALID,0,VALID,24.6964,VALID,73,VALID,0.179688,
2010-11-05, 02:42:04,VALID,1002.83,VALID,0,INVALID,146.063,VALID,0,VALID,24.6964,VALID,71,VALID,1.01211,
2010-11-05, 02:43:04,VALID,1002.88,VALID,0,INVALID,146.131,VALID,0,VALID,24.6964,VALID,64,VALID,0.329688,
2010-11-05, 02:44:04,VALID,1002.86,VALID,0,INVALID,146.185,VALID,0,VALID,24.7159,VALID,71,VALID,0.307031,
2010-11-05, 02:45:04,VALID,1002.87,VALID,0,INVALID,146.276,VALID,0,VALID,24.7372,VALID,62,VALID,0.439063,
2010-11-05, 02:46:04,VALID,1002.89,VALID,0,INVALID,146.314,VALID,0,VALID,24.6964,VALID,44,VALID,0.730469,
2010-11-05, 02:47:04,VALID,1002.87,VALID,0,INVALID,146.406,VALID,0,VALID,24.7159,VALID,29,VALID,0.652344,
2010-11-05, 02:48:04,VALID,1002.87,VALID,0,INVALID,146.467,VALID,0,VALID,24.7159,VALID,15,VALID,0.44375,
2010-11-05, 02:49:04,VALID,1002.86,VALID,0,INVALID,146.52,VALID,0,VALID,24.7159,VALID,53,VALID,0.197266,
2010-11-05, 02:50:04,VALID,1002.84,VALID,0,INVALID,146.589,VALID,0,VALID,24.6964,VALID,21,VALID,0.476953,
2010-11-05, 02:51:04,VALID,1002.83,VALID,0,INVALID,146.688,VALID,0,VALID,24.6964,VALID,76,VALID,0.464844,
2010-11-05, 02:52:04,VALID,1002.84,VALID,0,INVALID,146.726,VALID,0,VALID,24.7159,VALID,84,VALID,0.490234,
2010-11-05, 02:53:04,VALID,1002.84,VALID,0,INVALID,146.787,VALID,0,VALID,24.6964,VALID,47,VALID,0.455469,
2010-11-05, 02:54:04,VALID,1002.84,VALID,0,INVALID,146.886,VALID,0,VALID,24.7177,VALID,71,VALID,0.699219,
2010-11-05, 02:55:04,VALID,1002.83,VALID,0,INVALID,146.947,VALID,0,VALID,24.675,VALID,65,VALID,0,
2010-11-05, 02:56:04,VALID,1002.85,VALID,0,INVALID,146.978,VALID,0,VALID,24.6964,VALID,55,VALID,0.389453,
2010-11-05, 02:57:04,VALID,1002.82,VALID,0,INVALID,147.077,VALID,0,VALID,24.6964,VALID,29,VALID,0.429297,
2010-11-05, 02:58:04,VALID,1002.84,VALID,0,INVALID,147.108,VALID,0,VALID,24.6769,VALID,30,VALID,0.197656,
2010-11-05, 02:59:04,VALID,1002.85,VALID,0,INVALID,147.123,VALID,0,VALID,24.6964,VALID,52,VALID,0.40625,
2010-11-05, 03:00:04,VALID,1002.85,VALID,0,INVALID,147.146,VALID,0,VALID,24.6964,VALID,17,VALID,0.360547,
2010-11-05, 03:01:04,VALID,1002.86,VALID,0,INVALID,147.153,VALID,0,VALID,24.7159,VALID,17,VALID,0.0433594,
2010-11-05, 03:02:04,VALID,1002.86,VALID,0,INVALID,147.169,VALID,0,VALID,24.7353,VALID,58,VALID,0.902734,
2010-11-05, 03:03:04,VALID,1002.9,VALID,0,INVALID,147.153,VALID,0,VALID,24.7353,VALID,85,VALID,0.887891,
2010-11-05, 03:04:04,VALID,1002.93,VALID,0,INVALID,147.192,VALID,0,VALID,24.7743,VALID,86,VALID,0.685547,
2010-11-05, 03:05:04,VALID,1002.94,VALID,0,INVALID,147.222,VALID,0,VALID,24.7529,VALID,89,VALID,0.860547,
2010-11-05, 03:06:04,VALID,1002.95,VALID,0,INVALID,147.314,VALID,0,VALID,24.7743,VALID,85,VALID,0.621094,
2010-11-05, 03:07:04,VALID,1002.92,VALID,0,INVALID,147.306,VALID,0,VALID,24.7743,VALID,108,VALID,1.18164,
2010-11-05, 03:08:04,VALID,1002.91,VALID,0,INVALID,147.443,VALID,0,VALID,24.8132,VALID,22,VALID,1.28828,
2010-11-05, 03:09:04,VALID,1002.91,VALID,0,INVALID,147.649,VALID,0.100563,VALID,24.7919,VALID,75,VALID,1.16445,
2010-11-05, 03:10:04,VALID,1002.89,VALID,0,INVALID,147.855,VALID,0.100563,VALID,24.7724,VALID,63,VALID,0.751953,
2010-11-05, 03:11:04,VALID,1002.85,VALID,0,INVALID,148.199,VALID,0.100563,VALID,24.7548,VALID,102,VALID,1.02422,
2010-11-05, 03:12:04,VALID,1002.81,VALID,0,INVALID,148.45,VALID,0,VALID,24.714,VALID,48,VALID,0.884766,
2010-11-05, 03:13:04,VALID,1002.84,VALID,0,INVALID,148.672,VALID,0,VALID,24.714,VALID,88,VALID,0.852344,
2010-11-05, 03:14:04,VALID,1002.81,VALID,0,INVALID,148.87,VALID,0,VALID,24.675,VALID,98,VALID,1.25195,
2010-11-05, 03:15:04,VALID,1002.83,VALID,0,INVALID,149.045,VALID,0,VALID,24.675,VALID,108,VALID,1.00742,
2010-11-05, 03:16:04,VALID,1002.82,VALID,0,INVALID,149.19,VALID,0.100563,VALID,24.675,VALID,100,VALID,1.225,
2010-11-05, 03:17:04,VALID,1002.82,VALID,0,INVALID,149.358,VALID,0,VALID,24.6945,VALID,89,VALID,0.830469,
2010-11-05, 03:18:04,VALID,1002.8,VALID,0,INVALID,149.534,VALID,0,VALID,24.6556,VALID,84,VALID,0.829687,
2010-11-05, 03:19:04,VALID,1002.77,VALID,0,INVALID,149.808,VALID,0.100563,VALID,24.6148,VALID,83,VALID,1.18867,
2010-11-05, 03:20:04,VALID,1002.79,VALID,0,INVALID,150.045,VALID,0,VALID,24.6166,VALID,62,VALID,0.789063,
2010-11-05, 03:21:04,VALID,1002.8,VALID,0,INVALID,150.35,VALID,0.100563,VALID,24.5796,VALID,85,VALID,1.34336,
2010-11-05, 03:22:04,VALID,1002.8,VALID,0,INVALID,150.602,VALID,0,VALID,24.5582,VALID,37,VALID,0.274609,
2010-11-05, 03:23:04,VALID,1002.76,VALID,0,INVALID,150.869,VALID,0,VALID,24.5406,VALID,35,VALID,0.744141,
2010-11-05, 03:24:04,VALID,1002.79,VALID,0,INVALID,151.09,VALID,0,VALID,24.5017,VALID,91,VALID,0.758594,
2010-11-05, 03:25:04,VALID,1002.81,VALID,0,INVALID,151.342,VALID,0,VALID,24.4822,VALID,72,VALID,0.801172,
2010-11-05, 03:26:04,VALID,1002.81,VALID,0,INVALID,151.563,VALID,0,VALID,24.4414,VALID,58,VALID,0.589844,
2010-11-05, 03:27:04,VALID,1002.84,VALID,0,INVALID,151.754,VALID,0,VALID,24.4433,VALID,83,VALID,0.659375,
2010-11-05, 03:28:04,VALID,1002.84,VALID,0,INVALID,151.975,VALID,0,VALID,24.4238,VALID,68,VALID,0.524219,
2010-11-05, 03:29:04,VALID,1002.84,VALID,0,INVALID,152.189,VALID,0,VALID,24.4257,VALID,53,VALID,0.856641,
2010-11-05, 03:30:04,VALID,1002.85,VALID,0,INVALID,152.387,VALID,0,VALID,24.4062,VALID,37,VALID,0.409375,
2010-11-05, 03:31:04,VALID,1002.82,VALID,0,INVALID,152.585,VALID,0,VALID,24.3849,VALID,50,VALID,0.701172,
2010-11-05, 03:32:04,VALID,1002.84,VALID,0,INVALID,152.883,VALID,0,VALID,24.3654,VALID,48,VALID,0.647656,
2010-11-05, 03:33:04,VALID,1002.82,VALID,0,INVALID,153.18,VALID,0,VALID,24.3459,VALID,72,VALID,0.555078,
2010-11-05, 03:34:04,VALID,1002.82,VALID,0,INVALID,153.417,VALID,0,VALID,24.3459,VALID,72,VALID,0.323828,
2010-11-05, 03:35:04,VALID,1002.8,VALID,0,INVALID,153.646,VALID,0,VALID,24.3246,VALID,58,VALID,0.269922,
2010-11-05, 03:36:04,VALID,1002.8,VALID,0,INVALID,153.92,VALID,0,VALID,24.3265,VALID,36,VALID,0.464844,
2010-11-05, 03:37:04,VALID,1002.79,VALID,0,INVALID,154.233,VALID,0,VALID,24.2857,VALID,18,VALID,0.400781,
2010-11-05, 03:38:04,VALID,1002.81,VALID,0,INVALID,154.546,VALID,0.100563,VALID,24.2662,VALID,52,VALID,0.394531,
2010-11-05, 03:39:04,VALID,1002.83,VALID,0,INVALID,155.088,VALID,0,VALID,24.2486,VALID,5,VALID,0.594141,
2010-11-05, 03:40:04,VALID,1002.84,VALID,0,INVALID,155.446,VALID,0,VALID,24.2273,VALID,49,VALID,0.450391,
2010-11-05, 03:41:04,VALID,1002.85,VALID,0,INVALID,155.911,VALID,0,VALID,24.2273,VALID,24,VALID,0.625781,
2010-11-05, 03:42:04,VALID,1002.86,VALID,0,INVALID,156.445,VALID,0,VALID,24.2291,VALID,64,VALID,0.243359,
2010-11-05, 03:43:04,VALID,1002.89,VALID,0,INVALID,156.934,VALID,0,VALID,24.1689,VALID,92,VALID,0.364453,
2010-11-05, 03:44:04,VALID,1002.9,VALID,0,INVALID,157.338,VALID,0,VALID,24.1884,VALID,92,VALID,0.253516,
2010-11-05, 03:45:04,VALID,1002.94,VALID,0,INVALID,157.75,VALID,0,VALID,24.1902,VALID,61,VALID,0.423047,
2010-11-05, 03:46:04,VALID,1002.94,VALID,0,INVALID,158.07,VALID,0,VALID,24.1689,VALID,61,VALID,0.0941406,
2010-11-05, 03:47:04,VALID,1002.95,VALID,0,INVALID,158.536,VALID,0,VALID,24.13,VALID,47,VALID,0.466406,